Snowfall_Accumulation
0.0 0.0 0.0 0.0 0.0 0.0 0.0 0.0 0.0 0.0 0.0 0.0 0.0 0.0 0.0 0.0 0.0 0.0 0.0 nan nan nan nan nan nan nan nan nan nan nan nan nan nan nan nan nan nan nan
0.0 0.0 0.0 0.0 0.0 0.0 0.0 0.0 0.0 0.0 0.0 0.0 0.0 0.0 0.0 0.0 0.0 0.0 0.0 nan nan nan nan nan nan nan nan nan nan nan nan nan nan nan nan nan nan nan
0.0 0.0 0.0 0.0 0.0 0.0 0.0 0.0 0.0 0.0 0.0 0.0 0.0 0.0 0.0 0.0 0.0 0.0 0.0 0.0 0.0 nan nan nan nan nan nan nan nan nan nan nan nan nan nan nan nan nan
0.0 0.0 0.0 0.0 0.0 0.0 0.0 0.0 0.0 0.0 0.0 0.0 0.0 0.0 0.0 0.0 0.0 0.0 0.0 0.0 0.0 nan nan nan nan nan nan nan nan nan nan nan nan nan nan nan nan nan
0.0 0.0 0.0 0.0 0.0 0.0 0.0 0.0 0.0 0.0 0.0 0.0 0.0 0.0 0.0 0.0 0.0 0.0 0.0 0.0 0.0 nan nan nan nan nan nan nan nan nan nan nan nan nan nan nan nan nan
0.0 0.0 0.0 0.0 0.0 0.0 0.0 0.0 0.0 0.0 0.0 0.0 0.0 0.0 0.0 0.0 0.0 0.0 0.0 0.0 0.0 0.0 nan nan nan nan nan nan nan nan nan nan nan nan nan nan nan nan
0.0 0.0 0.0 nan nan nan 0.0 0.0 0.0 0.0 0.0 0.0 0.0 0.0 0.0 0.0 0.0 0.0 0.0 0.0 0.0 0.0 0.0 0.0 0.0 0.0 0.0 nan nan nan nan nan nan nan nan nan nan nan
0.0 0.0 0.0 0.0 0.0 nan nan nan nan 0.0 0.0 0.1 0.1 0.0 0.0 0.0 0.0 0.0 0.0 0.2 0.2 0.0 0.0 0.0 0.0 0.0 0.0 0.0 nan nan nan nan nan nan nan nan nan nan
0.0 0.0 0.0 0.0 nan 0.0 nan nan nan nan nan 0.0 0.0 0.0 0.0 0.0 0.0 0.0 0.0 0.2 0.1 0.0 0.0 0.0 0.0 0.0 0.0 0.0 nan nan nan nan nan nan nan nan nan nan
0.0 0.0 0.0 0.0 0.0 0.0 0.0 0.0 0.0 0.0 0.0 0.0 0.0 0.0 0.0 0.0 0.0 0.0 0.0 0.0 0.0 0.0 0.0 0.5 0.0 0.0 0.0 0.0 nan nan nan nan nan nan nan nan nan nan
0.0 0.0 0.0 0.0 nan nan 0.0 0.0 0.0 0.0 nan nan nan nan nan nan nan 0.1 0.3 0.5 0.3 0.1 0.0 0.1 0.1 0.2 0.1 0.0 0.0 nan nan nan nan nan nan nan nan nan
0.0 0.0 nan 0.0 nan nan 0.0 0.0 0.0 0.0 0.0 0.0 0.0 0.0 nan nan nan 0.0 0.3 1.7 1.1 0.9 0.4 0.9 0.3 0.4 1.3 0.2 0.1 0.0 0.0 nan nan nan nan nan nan 0.0
0.0 0.0 0.0 nan nan nan nan 0.0 0.0 0.0 0.0 0.0 0.2 0.3 0.2 0.1 0.1 0.2 0.1 1.6 2.9 1.9 0.2 0.8 2.1 0.8 1.0 0.8 0.3 0.2 0.1 0.0 0.0 0.0 nan nan nan 0.0
0.0 0.0 0.0 nan nan nan nan nan nan nan 0.0 0.0 0.1 0.3 0.5 0.5 0.5 0.4 0.1 0.2 0.3 1.1 0.1 0.2 6.6 2.0 3.2 2.2 1.1 0.3 0.3 0.2 0.1 0.1 0.1 nan nan nan
0.0 0.0 nan nan nan nan nan nan nan 0.0 0.0 0.4 0.5 0.9 0.9 1.0 0.7 1.0 0.3 0.3 1.1 0.2 0.1 1.4 3.3 2.2 3.1 4.1 3.0 1.2 1.4 0.5 0.3 0.7 0.7 0.4 0.2 0.2
nan 0.1 nan 0.0 nan nan 0.0 0.0 0.0 0.0 0.2 0.5 0.6 0.5 0.7 2.1 2.1 1.8 4.5 4.2 6.0 3.3 1.0 1.9 2.3 2.7 6.9 2.1 3.1 3.0 0.9 5.8 0.9 0.6 0.7 0.7 0.4 0.2
nan 0.0 0.0 0.0 0.1 0.0 0.0 0.0 0.0 0.0 0.5 0.5 1.0 1.5 1.4 2.3 3.2 3.2 5.8 6.6 10.3 6.9 7.1 4.3 2.3 2.3 2.8 3.9 7.4 2.0 2.0 2.7 1.7 2.4 3.6 3.0 0.6 0.2
0.0 0.0 0.1 0.2 0.2 0.0 0.0 0.0 0.1 0.6 0.6 1.2 1.8 2.3 3.9 5.1 5.9 6.8 7.5 9.3 11.3 6.6 7.3 6.1 6.7 7.7 4.5 2.9 4.3 4.3 2.7 3.6 2.5 2.2 2.5 6.3 3.4 0.5
0.0 0.4 0.4 0.4 0.4 0.5 0.6 1.0 2.2 1.0 1.3 4.0 3.9 4.5 5.2 6.4 7.1 7.8 8.0 7.6 7.4 6.8 7.9 7.9 12.2 13.5 14.6 10.1 1.5 nan 9.6 4.6 3.9 3.6 1.6 2.8 3.6 1.6
0.4 0.7 1.1 1.1 1.2 1.9 2.2 3.1 2.8 2.7 3.6 4.0 5.0 6.3 8.0 9.9 10.2 8.9 7.4 9.7 7.5 7.7 9.0 8.7 12.6 16.7 23.2 19.4 14.6 5.5 nan 6.4 5.0 5.8 3.8 1.6 1.0 nan
0.5 0.7 0.5 1.0 1.4 1.9 1.9 2.4 2.6 4.5 5.9 8.1 6.9 8.7 8.3 10.7 9.1 6.9 6.1 4.0 nan 7.0 10.1 7.7 7.0 nan 10.6 9.7 10.6 3.0 3.0 nan 1.8 7.4 5.3 6.1 3.9 2.3
0.3 0.5 0.5 0.8 1.4 2.2 3.2 3.7 5.0 5.2 5.9 5.8 6.7 7.6 7.6 7.9 9.1 6.7 4.9 7.4 4.4 5.2 7.3 6.0 4.8 7.4 11.6 12.4 11.0 5.9 4.6 2.6 nan nan nan nan 13.9 19.5
0.7 0.7 0.8 1.3 1.9 2.7 3.8 5.2 6.9 6.4 6.1 7.6 7.2 6.6 7.3 9.9 4.4 4.6 4.6 4.2 5.6 6.4 5.3 7.2 5.4 5.5 7.1 10.3 13.2 7.9 4.3 4.4 2.2 2.6 2.7 nan nan nan
Water_Equivalent
0.00 0.00 0.00 0.00 0.00 0.00 0.00 0.00 0.00 0.00 0.00 0.00 0.00 0.00 0.00 0.00 0.00 0.00 0.00 nan nan nan nan nan nan nan nan nan nan nan nan nan nan nan nan nan nan nan
0.00 0.00 0.00 0.00 0.00 0.00 0.00 0.00 0.00 0.00 0.00 0.00 0.00 0.00 0.00 0.00 0.00 0.00 0.00 nan nan nan nan nan nan nan nan nan nan nan nan nan nan nan nan nan nan nan
0.00 0.00 0.00 0.00 0.00 0.00 0.00 0.00 0.00 0.00 0.00 0.00 0.00 0.00 0.00 0.00 0.00 0.00 0.00 0.00 0.00 nan nan nan nan nan nan nan nan nan nan nan nan nan nan nan nan nan
0.00 0.00 0.00 0.00 0.00 0.00 0.00 0.00 0.00 0.00 0.00 0.00 0.00 0.00 0.00 0.00 0.00 0.00 0.00 0.00 0.00 nan nan nan nan nan nan nan nan nan nan nan nan nan nan nan nan nan
0.00 0.00 0.00 0.00 0.00 0.00 0.00 0.00 0.00 0.00 0.00 0.00 0.00 0.00 0.00 0.00 0.00 0.00 0.00 0.00 0.00 nan nan nan nan nan nan nan nan nan nan nan nan nan nan nan nan nan
0.00 0.00 0.00 0.00 0.00 0.00 0.00 0.00 0.00 0.00 0.00 0.00 0.00 0.00 0.00 0.00 0.00 0.00 0.00 0.00 0.00 0.00 nan nan nan nan nan nan nan nan nan nan nan nan nan nan nan nan
0.00 0.00 0.00 nan nan nan 0.00 0.00 0.00 0.00 0.00 0.01 0.00 0.00 0.02 0.00 0.00 0.00 0.00 0.00 0.00 0.00 0.00 0.00 0.00 0.00 0.00 nan nan nan nan nan nan nan nan nan nan nan
0.00 0.00 0.00 0.00 0.00 nan nan nan nan 0.00 0.00 0.03 0.05 0.01 0.00 0.00 0.00 0.00 0.00 0.08 0.09 0.00 0.00 0.00 0.00 0.00 0.00 0.00 nan nan nan nan nan nan nan nan nan nan
0.00 0.00 0.00 0.00 nan 0.00 nan nan nan nan nan 0.00 0.00 0.00 0.00 0.00 0.00 0.01 0.00 0.07 0.02 0.00 0.00 0.00 0.00 0.00 0.00 0.00 nan nan nan nan nan nan nan nan nan nan
0.00 0.00 0.00 0.00 0.00 0.00 0.00 0.00 0.00 0.00 0.00 0.00 0.00 0.00 0.00 0.00 0.00 0.00 0.00 0.00 0.00 0.00 0.00 0.19 0.00 0.00 0.00 0.00 nan nan nan nan nan nan nan nan nan nan
0.00 0.00 0.00 0.00 nan nan 0.00 0.00 0.00 0.00 nan nan nan nan nan nan nan 0.03 0.14 0.20 0.12 0.04 0.01 0.06 0.04 0.07 0.04 0.00 0.00 nan nan nan nan nan nan nan nan nan
0.00 0.00 nan 0.00 nan nan 0.00 0.00 0.00 0.00 0.00 0.00 0.00 0.00 nan nan nan 0.00 0.13 0.65 0.41 0.33 0.11 0.34 0.13 0.15 0.40 0.07 0.05 0.00 0.00 nan nan nan nan nan nan 0.00
0.00 0.00 0.00 nan nan nan nan 0.00 0.00 0.00 0.00 0.00 0.04 0.07 0.06 0.04 0.03 0.04 0.03 0.57 1.04 0.69 0.07 0.30 0.73 0.27 0.36 0.26 0.11 0.08 0.03 0.00 0.00 0.00 nan nan nan 0.00
0.00 0.00 0.00 nan nan nan nan nan nan nan 0.00 0.00 0.06 0.12 0.18 0.21 0.18 0.15 0.02 0.08 0.13 0.39 0.04 0.06 2.28 0.66 0.98 0.55 0.28 0.13 0.10 0.07 0.05 0.05 0.04 nan nan nan
0.00 0.00 nan nan nan nan nan nan nan 0.01 0.01 0.15 0.21 0.35 0.34 0.38 0.24 0.28 0.10 0.11 0.33 0.08 0.05 0.53 1.18 0.81 1.05 1.03 0.65 0.31 0.39 0.19 0.11 0.29 0.27 0.18 0.09 0.07
nan 0.05 nan 0.00 nan nan 0.00 0.00 0.01 0.00 0.07 0.16 0.20 0.18 0.25 0.58 0.54 0.50 1.05 1.01 1.33 0.86 0.30 0.60 0.76 0.83 1.57 0.57 0.76 0.65 0.26 1.27 0.32 0.25 0.27 0.28 0.18 0.10
nan 0.00 0.00 0.00 0.03 0.00 0.00 0.00 0.00 0.00 0.15 0.15 0.28 0.37 0.38 0.58 0.73 0.80 1.27 1.45 1.73 1.22 1.15 0.93 0.49 0.53 0.70 0.80 1.26 0.46 0.48 0.67 0.53 0.71 0.97 0.91 0.25 0.07
0.00 0.00 0.05 0.06 0.07 0.00 0.00 0.01 0.03 0.20 0.19 0.36 0.48 0.58 0.87 1.04 1.17 1.40 1.59 1.59 1.67 1.08 1.15 1.04 1.05 1.12 0.86 0.63 0.90 0.84 0.60 0.86 0.70 0.58 0.64 1.20 0.74 0.16
0.00 0.13 0.13 0.14 0.14 0.16 0.20 0.30 0.60 0.31 0.39 1.13 1.02 1.07 1.15 1.28 1.43 1.39 1.36 1.28 1.17 1.09 1.27 1.28 1.68 1.85 1.79 1.19 0.34 nan 1.77 1.02 0.89 0.76 0.39 0.62 0.72 0.40
0.13 0.20 0.30 0.30 0.35 0.54 0.61 0.83 0.76 0.73 0.93 1.04 1.20 1.38 1.63 1.90 1.84 1.51 1.23 1.43 1.20 1.27 1.37 1.36 1.84 2.37 3.21 2.66 2.04 0.94 nan 1.28 0.93 0.99 0.74 0.36 0.24 nan
0.15 0.21 0.17 0.29 0.41 0.52 0.53 0.66 0.65 1.18 1.58 1.92 1.50 1.75 1.69 1.98 1.56 1.20 1.02 0.70 nan 1.15 1.42 1.08 1.21 nan 2.26 1.60 1.43 0.48 0.67 nan 0.36 1.34 1.09 0.97 0.64 0.40
0.10 0.15 0.16 0.26 0.41 0.62 0.85 0.95 1.28 1.33 1.38 1.32 1.45 1.62 1.49 1.45 1.48 1.08 0.77 1.17 0.72 0.86 1.16 1.17 0.97 1.43 1.86 1.74 1.36 0.76 0.74 0.52 nan nan nan nan 2.29 2.87
0.20 0.19 0.26 0.39 0.55 0.72 0.96 1.21 1.56 1.47 1.39 1.75 1.67 1.42 1.39 1.50 0.72 0.76 0.75 0.71 0.94 1.05 0.91 1.05 0.84 0.92 1.06 1.51 1.73 1.06 0.55 0.60 0.42 0.49 0.63 nan nan nan
SL_Ratio
nan nan nan nan nan nan nan nan nan nan nan nan nan nan nan nan nan nan nan nan nan nan nan nan nan nan nan nan nan nan nan nan nan nan nan nan nan nan
nan nan nan nan nan nan nan nan nan nan nan nan nan nan nan nan nan nan nan nan nan nan nan nan nan nan nan nan nan nan nan nan nan nan nan nan nan nan
nan nan nan nan nan nan nan nan nan nan nan nan nan nan nan nan nan nan nan nan nan nan nan nan nan nan nan nan nan nan nan nan nan nan nan nan nan nan
nan nan nan nan nan nan nan nan nan nan nan nan nan nan nan nan nan nan nan nan nan nan nan nan nan nan nan nan nan nan nan nan nan nan nan nan nan nan
nan nan nan nan nan nan nan nan nan nan nan nan nan nan nan nan nan nan nan nan nan nan nan nan nan nan nan nan nan nan nan nan nan nan nan nan nan nan
nan nan nan nan nan nan nan nan nan nan nan nan nan nan nan nan nan nan nan nan nan nan nan nan nan nan nan nan nan nan nan nan nan nan nan nan nan nan
nan nan nan nan nan nan nan nan nan nan nan 2.6 2.0 2.5 2.6 nan nan nan nan nan nan nan nan nan nan nan nan nan nan nan nan nan nan nan nan nan nan nan
nan nan nan nan nan nan nan nan nan nan nan 2.5 2.5 2.4 nan nan nan nan 3.3 2.5 2.6 nan nan nan nan nan nan nan nan nan nan nan nan nan nan nan nan nan
nan nan nan nan nan nan nan nan nan nan nan nan nan nan nan nan nan 2.6 2.7 2.5 2.5 nan nan nan nan nan nan nan nan nan nan nan nan nan nan nan nan nan
nan nan nan nan nan nan nan nan nan nan nan nan nan nan nan nan nan 2.3 1.7 nan 3.3 nan nan 2.5 nan nan nan nan nan nan nan nan nan nan nan nan nan nan
nan nan nan nan nan nan nan 0.0 nan nan nan nan nan nan nan nan nan 2.5 2.5 2.5 2.5 2.5 2.4 2.5 2.5 2.5 2.5 nan nan nan nan nan nan nan nan nan nan nan
nan nan nan nan nan nan nan nan nan nan 0.0 2.5 nan nan nan nan nan nan 2.5 2.6 2.6 2.6 3.2 2.7 2.6 2.6 3.3 2.5 2.5 3.0 nan nan nan nan nan nan nan nan
nan nan nan nan nan nan nan nan nan nan nan nan 4.3 4.4 4.3 3.8 4.9 4.2 4.1 2.7 2.8 2.7 2.6 2.6 2.8 2.9 2.9 3.1 2.5 2.5 2.5 2.7 nan nan nan nan nan nan
nan nan nan nan nan nan nan nan nan nan nan nan 2.5 2.5 2.7 2.5 2.5 2.5 2.8 2.5 2.5 2.8 2.5 2.5 2.9 3.0 3.3 3.9 3.7 2.6 2.5 2.5 2.5 2.5 2.5 nan nan nan
nan nan nan nan nan nan nan nan nan 2.4 2.5 3.1 2.6 2.6 2.7 2.6 3.0 3.4 3.4 3.1 3.3 2.9 2.6 2.7 2.8 2.7 3.0 4.0 4.5 3.8 3.6 2.5 2.5 2.6 2.6 2.5 2.5 2.5
nan 2.5 nan nan nan nan nan nan 2.3 nan 3.2 3.4 3.3 2.8 2.9 3.6 3.8 3.6 4.3 4.2 4.6 3.9 3.4 3.2 3.1 3.2 4.4 3.7 4.1 4.7 3.3 4.6 2.8 2.5 2.5 2.5 2.5 2.5
nan nan nan nan 2.6 nan nan nan nan 5.0 3.3 3.3 3.6 4.0 3.8 3.9 4.3 4.0 4.5 4.6 6.0 5.6 6.2 4.7 4.6 4.2 4.0 4.9 5.9 4.2 4.1 4.0 3.3 3.4 3.7 3.3 2.5 2.5
nan nan 2.9 2.9 3.0 3.3 3.3 3.3 2.7 3.1 3.3 3.4 3.7 4.0 4.5 4.9 5.1 4.9 4.7 5.8 6.8 6.2 6.3 5.9 6.4 6.8 5.2 4.7 4.8 5.1 4.6 4.2 3.5 3.7 3.9 5.3 4.5 3.4
nan 3.1 3.2 3.2 3.2 3.3 3.3 3.3 3.7 3.2 3.2 3.6 3.8 4.2 4.5 5.0 5.0 5.6 5.9 5.9 6.3 6.2 6.3 6.2 7.3 7.3 8.1 8.5 4.5 nan 5.4 4.5 4.4 4.7 4.2 4.5 5.0 3.9
3.0 3.3 3.5 3.5 3.5 3.6 3.6 3.7 3.7 3.8 3.8 3.9 4.2 4.5 4.9 5.2 5.5 5.9 6.0 6.8 6.2 6.0 6.6 6.4 6.9 7.1 7.2 7.3 7.2 5.8 nan 5.0 5.3 5.8 5.2 4.6 4.3 nan
3.3 3.3 3.2 3.3 3.5 3.5 3.6 3.7 4.0 3.8 3.8 4.3 4.6 5.0 4.9 5.4 5.8 5.8 5.9 5.8 nan 6.1 7.1 7.1 5.8 nan 4.7 6.0 7.4 6.2 4.6 nan 5.1 5.5 4.9 6.3 6.1 5.6
3.3 3.4 3.3 3.2 3.3 3.6 3.8 3.9 4.0 3.9 4.2 4.4 4.6 4.7 5.1 5.5 6.2 6.2 6.4 6.3 6.1 6.0 6.3 5.2 5.0 5.2 6.2 7.1 8.1 7.8 6.2 5.0 nan nan nan nan 6.1 6.8
3.5 3.6 3.3 3.3 3.4 3.7 4.0 4.3 4.4 4.3 4.4 4.4 4.3 4.6 5.2 6.6 6.1 6.1 6.1 5.9 5.9 6.1 5.9 6.8 6.5 6.0 6.7 6.8 7.7 7.4 7.8 7.3 5.3 5.2 4.3 nan nan nan